Location: White Sands National Monument
(32.8140°N, 106.2665°W)
Time: 07:07:18
(UTC-07:00)

Daily predictions for brighter satellites

Satellite Brightness Start Highest point End
(mag) Time Altitude Azimuth Time Altitude Azimuth Time Altitude Azimuth
COSMOS 2406 3.2 17:16:38 10° NNW 17:22:23 78° ENE 17:28:04 10° SSE
Cosmos 1461 3.6 17:22:13 10° NNW 17:26:54 70° WSW 17:31:36 10° SSE
CSL-04 Debris 4.1 17:26:28 10° SSE 17:31:52 74° ENE 17:37:17 10° N
Ariane Rocket 3.0 17:27:22 10° SSE 17:32:25 74° ENE 17:37:31 10° N
Okean 1-7 4.0 17:32:53 10° SSE 17:36:31 26° E 17:40:10 10° NNE
COSMOS 2455 3.9 17:33:53 10° SW 17:39:37 46° WNW 17:45:24 10° NNE
Cosmos 1633 3.9 17:38:06 10° NNE 17:40:53 20° ENE 17:43:40 10° SE
MTI 4.1 17:38:16 10° NNE 17:41:21 44° E 17:44:27 10° S
CZ-4 R/B 1.3 17:37:44 10° SSE 17:41:33 58° ENE 17:45:21 10° N
Cosmos 2297 4.2 17:36:47 10° S 17:42:01 39° ESE 17:47:17 10° NE
Meteor 1-26 Rocket 4.4 17:37:28 10° SSW 17:43:05 76° W 17:48:38 10° N
Cosmos 841 Rocket 3.9 17:40:32 10° N 17:45:31 41° ENE 17:50:27 10° SE
Cosmos 1833 Rocket 3.9 17:41:46 10° NNE 17:45:53 20° ENE 17:49:59 10° ESE
GPS 2-05 Rocket1 3.7 17:44:27 10° SW 17:47:20 33° SSE 17:49:39 14° E
USA 234 3.3 17:40:49 10° NE 17:47:23 77° SE 17:53:54 10° SW
Cosmos 1486 Rocket 4.0 17:42:23 10° SSW 17:47:35 86° WNW 17:52:50 10° NNE
Cosmos 2278 Rocket 2.6 17:42:03 10° SSW 17:47:42 69° WNW 17:53:22 10° NNE
Cosmos 1782 Rocket 4.3 17:49:49 10° NNE 17:53:40 30° E 17:57:31 10° SE
YAOGAN 1 2.6 17:50:56 10° SSE 17:55:11 59° ENE 17:59:26 10° N
CORIOLIS 4.2 17:51:05 10° SSE 17:56:32 86° WSW 18:02:00 10° NNW
Cosmos 1484 Rocket 3.7 17:55:03 10° S 17:58:46 51° W 18:02:33 10° NNW
COSMO-SKYMED 1 2.5 17:54:29 10° NNE 17:58:47 64° E 18:03:05 10° S
OAO 3 Copernicus 4.4 17:55:33 10° W 18:00:37 69° N 18:04:13 19° E
Cosmos 1441 Rocket 4.5 17:57:37 10° SE 18:00:43 22° E 18:01:41 20° ENE
Meteor 1-28 Rocket 4.3 17:57:19 10° N 18:00:52 44° WNW 18:04:24 10° SSW
Cosmos 1606 2.5 17:57:34 10° S 18:01:20 70° E 18:05:06 10° N
OAO 3 Rocket 4.0 17:57:09 10° SW 18:01:44 39° SSE 18:04:51 18° E
SPOT 3 Rocket 3.9 17:58:22 10° SE 18:03:13 41° ENE 18:08:04 10° N
Cosmos 304 Rocket 3.7 17:58:39 10° NNW 18:03:28 84° ENE 18:08:15 10° SSE
Cosmos 1354 Rocket 4.0 17:58:50 10° S 18:04:04 65° ESE 18:09:17 10° NNE
Cosmos 1072 Rocket 4.5 17:58:40 10° S 18:04:44 62° E 18:10:54 10° NNE
Cosmos 2221 Rocket 3.6 18:03:27 10° S 18:07:46 58° E 18:12:06 10° NNE
Cosmos 2034 Rocket 4.3 18:05:19 10° SSE 18:11:18 45° E 18:17:18 10° NNE
EO 1 Del DPAF 3.2 18:07:39 10° NNE 18:11:29 87° WNW 18:15:17 10° SSW
Chunghua 1 4.4 18:11:23 10° WNW 18:15:06 76° N 18:16:35 34° E
Cosmos 1703 Rocket 4.1 18:12:36 10° SSW 18:17:01 63° W 18:21:28 10° N
ERBS 2.3 18:14:21 10° NW 18:17:45 82° SW 18:20:48 12° SE
Cosmos 1782 3.1 18:14:21 10° SSW 18:18:21 69° W 18:22:22 10° N
NOAA 12 4.2 18:13:30 10° SSE 18:18:37 51° ENE 18:23:45 10° N
Meteor 2-6 Rocket 4.0 18:15:07 10° S 18:20:30 76° E 18:26:01 10° NNE
Tiangong 1 2.7 18:25:14 10° SSW 18:26:25 18° S 18:26:25 18° S
USA 229 DEB 4.4 18:23:08 10° S 18:28:50 30° ESE 18:30:03 28° E
USA 229 4.4 18:23:16 10° SSE 18:28:56 30° ESE 18:30:06 28° E
ALOS 2.1 18:26:27 10° SSE 18:31:04 69° ENE 18:35:43 10° N
Cosmos 2082 Rocket 2.3 18:26:43 10° N 18:32:15 50° ENE 18:37:42 10° SE
Cosmos 405 Rocket 2.5 18:28:43 10° S 18:32:33 80° E 18:34:12 32° NNE
Okean 2 Rocket 3.1 18:28:33 10° N 18:33:01 57° E 18:37:26 10° SSE
ERS-2 3.3 18:33:48 10° S 18:37:18 44° W 18:40:51 10° NNW
Meteor 2-20 4.5 18:32:36 10° N 18:38:32 53° E 18:44:25 10° SSE
Cosmos 1464 Rocket 4.1 18:34:01 10° SSW 18:40:07 72° W 18:46:15 10° N
Thor Agena Rocket 3.5 18:39:42 38° NE 18:41:21 54° ESE 18:46:22 10° S
Meteor 1-27 Rocket 3.7 18:41:35 10° S 18:47:26 83° E 18:53:24 10° N
SL-27 R/B 4.3 18:55:26 10° NW 18:58:23 29° WSW 19:01:20 10° SSW
Cosmos 968 Rocket 3.8 19:11:32 10° SSW 19:16:37 63° WNW 19:17:16 58° NW
Meteor 2-20 Rocket 4.3 19:15:38 10° N 19:21:44 85° W 19:27:48 10° S
CZ-4C R/B 3.5 19:15:38 10° NNW 19:20:54 41° NNE 19:20:54 41° NNE
Cosmos 2369 Rocket 4.0 19:19:25 10° S 19:21:00 19° S 19:21:00 19° S
Cosmos 1833 Rocket 3.6 19:24:39 10° NW 19:30:00 46° WSW 19:35:19 10° S
Meteor 1-11 Rocket 4.3 19:25:00 10° NNW 19:30:42 57° W 19:36:15 10° S
